Back to catalog

COSMOS 1104

AliveNavigationPO
NORAD 11378·PAYLOAD·🇷🇺 Russia

Launched May 31, 1979 from Plesetsk Cosmodrome

Loading…

Next Passes (next 24 hours)

TLE

FreshSource: Space-Track

Epoch: Sep 14, 2026, 13:19 UTC

1 11378U 79046A   26257.55503435  .00000056  00000-0  42561-4 0  9991
2 11378  82.9511 354.2925 0031692 317.7851  53.0707 13.76000976373869

Track COSMOS 1104 in real time with AllMySat

Download on the App Store